Wetterdaten: Woche 19.12.22 - 25.12.22 (KW51)
Datum Zeit Temp. Aussen Temp. o. S. Temp +5cm Feuchte Auss Luftdruck Regen Sonnenschein Regendauer Solar Windben Empfang
19.12.2022 00:00 -0,6 C -1,5 C -4,4 C 92 % 1021,8 hPa 0,0 l/m 0,00 h 0,80 h 0 W/m 24,4 km/h (4 Bft) 91,79 %
19.12.2022 01:00 -0,3 C -1,1 C -4,3 C 93 % 1021,1 hPa 0,0 l/m 0,00 h 0,20 h 0 W/m 26,4 km/h (4 Bft) 96,04 %
19.12.2022 02:00 -0,0 C -0,8 C -3,9 C 94 % 1020,4 hPa 0,0 l/m 0,00 h 0,13 h 0 W/m 22,4 km/h (4 Bft) 97,44 %
19.12.2022 03:00 0,5 C -0,1 C -3,3 C 94 % 1019,4 hPa 0,2 l/m 0,00 h 0,10 h 0 W/m 27,2 km/h (4 Bft) 93,45 %
19.12.2022 04:00 0,7 C 0,0 C -2,9 C 94 % 1019,0 hPa 0,4 l/m 0,00 h 0,20 h 0 W/m 23,6 km/h (4 Bft) 97,99 %
19.12.2022 05:00 1,0 C 0,3 C -2,6 C 96 % 1018,6 hPa 1,2 l/m 0,00 h 0,77 h 0 W/m 22,3 km/h (4 Bft) 97,38 %
19.12.2022 06:00 1,5 C 0,8 C -1,9 C 97 % 1018,3 hPa 0,8 l/m 0,00 h 0,33 h 0 W/m 21,0 km/h (4 Bft) 95,11 %
19.12.2022 07:00 2,0 C 1,2 C -1,4 C 97 % 1018,3 hPa 1,2 l/m 0,00 h 0,80 h 0 W/m 19,8 km/h (4 Bft) 95,93 %
19.12.2022 08:00 2,5 C 2,0 C -0,8 C 98 % 1018,3 hPa 0,6 l/m 0,00 h 0,70 h 5 W/m 19,3 km/h (3 Bft) 97,01 %
19.12.2022 09:00 3,2 C 2,7 C -0,2 C 98 % 1018,5 hPa 0,2 l/m 0,00 h 0,33 h 16 W/m 18,8 km/h (3 Bft) 98,01 %
19.12.2022 10:00 3,8 C 3,4 C 0,5 C 98 % 1018,5 hPa 0,0 l/m 0,00 h 0,13 h 40 W/m 17,6 km/h (3 Bft) 96,56 %
19.12.2022 11:00 4,4 C 4,2 C 1,1 C 98 % 1018,5 hPa 0,0 l/m 0,00 h 0,00 h 37 W/m 17,3 km/h (3 Bft) 96,50 %
19.12.2022 12:00 4,6 C 4,3 C 1,4 C 98 % 1018,2 hPa 0,0 l/m 0,00 h 0,00 h 45 W/m 18,1 km/h (3 Bft) 96,76 %
19.12.2022 13:00 5,1 C 5,2 C 1,8 C 98 % 1017,8 hPa 0,0 l/m 0,03 h 0,00 h 107 W/m 19,8 km/h (4 Bft) 97,44 %
19.12.2022 14:00 5,6 C 5,4 C 1,9 C 96 % 1017,4 hPa 0,0 l/m 0,00 h 0,00 h 80 W/m 20,9 km/h (4 Bft) 97,86 %
19.12.2022 15:00 5,5 C 5,0 C 1,7 C 93 % 1016,8 hPa 0,0 l/m 0,00 h 0,00 h 24 W/m 19,8 km/h (4 Bft) 97,15 %
19.12.2022 16:00 5,8 C 5,4 C 1,7 C 92 % 1016,3 hPa 0,0 l/m 0,00 h 0,00 h 3 W/m 20,3 km/h (4 Bft) 96,16 %
19.12.2022 17:00 6,2 C 5,6 C 2,1 C 91 % 1016,5 hPa 0,0 l/m 0,00 h 0,00 h 0 W/m 20,9 km/h (4 Bft) 99,43 %
19.12.2022 18:00 6,3 C 5,6 C 2,5 C 91 % 1016,9 hPa 0,0 l/m 0,00 h 0,00 h 0 W/m 16,1 km/h (3 Bft) 95,70 %
19.12.2022 19:00 6,5 C 5,9 C 2,8 C 91 % 1016,8 hPa 0,0 l/m 0,00 h 0,00 h 0 W/m 11,2 km/h (2 Bft) 98,15 %
19.12.2022 20:00 6,7 C 6,3 C 2,9 C 91 % 1016,9 hPa 0,0 l/m 0,00 h 0,00 h 0 W/m 10,8 km/h (2 Bft) 97,99 %
19.12.2022 21:00 7,8 C 7,5 C 3,8 C 91 % 1016,9 hPa 0,0 l/m 0,00 h 0,00 h 0 W/m 11,9 km/h (2 Bft) 97,00 %
19.12.2022 22:00 8,9 C 8,5 C 4,5 C 91 % 1016,8 hPa 0,0 l/m 0,00 h 0,00 h 0 W/m 9,2 km/h (2 Bft) 97,58 %
19.12.2022 23:00 9,9 C 9,4 C 5,1 C 91 % 1016,6 hPa 0,0 l/m 0,00 h 0,00 h 0 W/m 11,3 km/h (2 Bft) 98,36 %
20.12.2022 00:00 10,2 C 9,6 C 5,4 C 89 % 1015,9 hPa 0,0 l/m 0,00 h 0,00 h 0 W/m 8,6 km/h (2 Bft) 96,30 %
20.12.2022 01:00 10,2 C 9,2 C 5,0 C 86 % 1015,7 hPa 0,0 l/m 0,00 h 0,00 h 0 W/m 5,9 km/h (2 Bft) 95,96 %
20.12.2022 02:00 9,7 C 8,9 C 4,9 C 87 % 1015,4 hPa 0,0 l/m 0,00 h 0,07 h 0 W/m 8,0 km/h (2 Bft) 96,79 %
20.12.2022 03:00 10,0 C 9,3 C 4,9 C 87 % 1015,1 hPa 0,2 l/m 0,00 h 0,30 h 0 W/m 11,1 km/h (2 Bft) 97,19 %
20.12.2022 04:00 9,9 C 8,7 C 4,4 C 90 % 1015,0 hPa 0,4 l/m 0,00 h 0,57 h 0 W/m 13,8 km/h (3 Bft) 98,51 %
20.12.2022 05:00 9,0 C 7,9 C 4,2 C 93 % 1014,9 hPa 0,4 l/m 0,00 h 0,70 h 0 W/m 14,9 km/h (3 Bft) 96,59 %
20.12.2022 06:00 8,7 C 8,0 C 4,4 C 95 % 1014,3 hPa 0,0 l/m 0,00 h 0,00 h 0 W/m 15,8 km/h (3 Bft) 96,94 %
20.12.2022 07:00 8,8 C 8,3 C 4,4 C 95 % 1013,8 hPa 0,0 l/m 0,00 h 0,00 h 0 W/m 16,4 km/h (3 Bft) 99,51 %
20.12.2022 08:00 8,8 C 8,3 C 4,4 C 94 % 1013,3 hPa 0,0 l/m 0,00 h 0,03 h 5 W/m 16,7 km/h (3 Bft) 95,43 %
20.12.2022 09:00 9,0 C 8,4 C 4,9 C 93 % 1013,3 hPa 0,0 l/m 0,00 h 0,00 h 12 W/m 14,5 km/h (3 Bft) 97,04 %
20.12.2022 10:00 9,2 C 8,7 C 5,0 C 93 % 1013,3 hPa 0,0 l/m 0,00 h 0,33 h 29 W/m 13,2 km/h (3 Bft) 97,51 %
20.12.2022 11:00 9,5 C 9,2 C 5,2 C 93 % 1012,9 hPa 0,2 l/m 0,00 h 0,20 h 44 W/m 13,0 km/h (3 Bft) 96,73 %
20.12.2022 12:00 10,3 C 10,1 C 6,0 C 92 % 1012,3 hPa 0,0 l/m 0,00 h 0,03 h 45 W/m 12,1 km/h (2 Bft) 95,34 %
20.12.2022 13:00 11,2 C 10,5 C 6,7 C 91 % 1012,0 hPa 0,0 l/m 0,00 h 0,47 h 51 W/m 21,9 km/h (4 Bft) 98,38 %
20.12.2022 14:00 10,9 C 9,9 C 6,7 C 95 % 1011,8 hPa 1,0 l/m 0,00 h 0,67 h 23 W/m 20,3 km/h (4 Bft) 95,31 %
20.12.2022 15:00 10,6 C 9,4 C 6,4 C 96 % 1011,6 hPa 1,0 l/m 0,00 h 0,93 h 12 W/m 15,2 km/h (3 Bft) 99,29 %
20.12.2022 16:00 10,5 C 9,3 C 6,1 C 95 % 1011,3 hPa 0,4 l/m 0,00 h 0,93 h 0 W/m 9,2 km/h (2 Bft) 96,44 %
20.12.2022 17:00 9,9 C 8,9 C 5,7 C 96 % 1011,1 hPa 0,4 l/m 0,00 h 0,67 h 0 W/m 5,0 km/h (1 Bft) 97,13 %
20.12.2022 18:00 9,7 C 8,9 C 5,9 C 96 % 1011,0 hPa 0,2 l/m 0,00 h 0,33 h 0 W/m 4,9 km/h (1 Bft) 97,06 %
20.12.2022 19:00 9,7 C 8,8 C 6,1 C 97 % 1010,9 hPa 0,6 l/m 0,00 h 0,93 h 0 W/m 4,9 km/h (1 Bft) 98,15 %
20.12.2022 20:00 9,5 C 8,3 C 5,9 C 97 % 1010,9 hPa 0,6 l/m 0,00 h 0,87 h 0 W/m 2,1 km/h (1 Bft) 96,63 %
20.12.2022 21:00 9,1 C 8,1 C 5,6 C 97 % 1010,8 hPa 0,6 l/m 0,00 h 0,80 h 0 W/m 1,8 km/h (1 Bft) 97,29 %
20.12.2022 22:00 9,4 C 8,6 C 6,1 C 98 % 1010,7 hPa 0,4 l/m 0,00 h 0,87 h 0 W/m 3,5 km/h (1 Bft) 98,51 %
20.12.2022 23:00 9,6 C 8,9 C 6,1 C 99 % 1010,7 hPa 0,4 l/m 0,00 h 0,67 h 0 W/m 2,2 km/h (1 Bft) 96,37 %
21.12.2022 00:00 9,5 C 8,9 C 6,6 C 99 % 1010,9 hPa 0,0 l/m 0,00 h 0,10 h 0 W/m 3,1 km/h (1 Bft) 96,78 %
21.12.2022 01:00 9,4 C 8,5 C 6,6 C 99 % 1011,0 hPa 0,0 l/m 0,00 h 0,07 h 0 W/m 1,5 km/h (1 Bft) 98,72 %
21.12.2022 02:00 9,3 C 8,3 C 6,6 C 99 % 1011,2 hPa 0,0 l/m 0,00 h 0,20 h 0 W/m 0,0 km/h (0 Bft) 93,93 %
21.12.2022 03:00 9,2 C 8,3 C 6,5 C 99 % 1011,3 hPa 0,2 l/m 0,00 h 0,17 h 0 W/m 1,4 km/h (1 Bft) 98,49 %
21.12.2022 04:00 9,2 C 8,3 C 6,5 C 99 % 1011,0 hPa 0,0 l/m 0,00 h 0,10 h 0 W/m 0,0 km/h (0 Bft) 98,08 %
21.12.2022 05:00 9,1 C 8,2 C 6,4 C 99 % 1010,6 hPa 0,2 l/m 0,00 h 0,27 h 0 W/m 0,6 km/h (0 Bft) 96,00 %
21.12.2022 06:00 8,8 C 7,8 C 6,1 C 99 % 1010,6 hPa 0,2 l/m 0,00 h 0,13 h 0 W/m 0,8 km/h (0 Bft) 98,97 %
21.12.2022 07:00 8,6 C 7,8 C 6,1 C 100 % 1010,5 hPa 1,0 l/m 0,00 h 0,63 h 0 W/m 0,0 km/h (0 Bft) 97,08 %
21.12.2022 08:00 8,4 C 7,5 C 6,0 C 100 % 1010,8 hPa 0,0 l/m 0,00 h 0,00 h 4 W/m 0,0 km/h (0 Bft) 97,09 %
21.12.2022 09:00 8,1 C 7,2 C 6,0 C 99 % 1011,2 hPa 1,0 l/m 0,00 h 0,57 h 10 W/m 0,4 km/h (0 Bft) 97,23 %
21.12.2022 10:00 8,3 C 7,9 C 6,2 C 100 % 1011,6 hPa 0,2 l/m 0,07 h 0,03 h 66 W/m 5,3 km/h (1 Bft) 95,75 %
21.12.2022 11:00 8,2 C 8,3 C 6,3 C 100 % 1011,9 hPa 0,0 l/m 0,00 h 0,00 h 84 W/m 9,1 km/h (2 Bft) 98,01 %
21.12.2022 12:00 8,4 C 8,9 C 6,6 C 100 % 1011,7 hPa 0,0 l/m 0,07 h 0,00 h 125 W/m 17,2 km/h (3 Bft) 98,64 %
21.12.2022 13:00 8,7 C 9,0 C 6,2 C 98 % 1011,5 hPa 0,0 l/m 0,00 h 0,00 h 100 W/m 16,9 km/h (3 Bft) 95,58 %
21.12.2022 14:00 9,0 C 8,9 C 6,1 C 95 % 1011,0 hPa 0,0 l/m 0,00 h 0,00 h 76 W/m 14,2 km/h (3 Bft) 98,44 %
21.12.2022 15:00 9,1 C 8,6 C 5,9 C 93 % 1010,7 hPa 0,0 l/m 0,10 h 0,00 h 42 W/m 6,5 km/h (2 Bft) 97,03 %
21.12.2022 16:00 8,8 C 8,0 C 5,2 C 92 % 1010,4 hPa 0,0 l/m 0,00 h 0,00 h 11 W/m 8,6 km/h (2 Bft) 96,42 %
21.12.2022 17:00 8,1 C 7,2 C 4,9 C 91 % 1009,8 hPa 0,0 l/m 0,00 h 0,00 h 0 W/m 4,7 km/h (1 Bft) 95,59 %
21.12.2022 18:00 7,8 C 7,2 C 4,8 C 92 % 1009,3 hPa 0,0 l/m 0,00 h 0,07 h 0 W/m 5,3 km/h (1 Bft) 98,02 %
21.12.2022 19:00 8,0 C 7,1 C 4,8 C 93 % 1009,0 hPa 0,4 l/m 0,00 h 0,80 h 0 W/m 6,5 km/h (2 Bft) 96,94 %
21.12.2022 20:00 7,6 C 6,7 C 4,4 C 95 % 1008,3 hPa 0,8 l/m 0,00 h 0,47 h 0 W/m 9,0 km/h (2 Bft) 97,09 %
21.12.2022 21:00 7,6 C 6,7 C 4,4 C 96 % 1007,7 hPa 0,2 l/m 0,00 h 0,00 h 0 W/m 6,5 km/h (2 Bft) 98,36 %
21.12.2022 22:00 7,7 C 6,8 C 5,0 C 97 % 1007,3 hPa 0,0 l/m 0,00 h 0,00 h 0 W/m 7,1 km/h (2 Bft) 97,62 %
21.12.2022 23:00 7,8 C 7,2 C 5,1 C 98 % 1006,7 hPa 0,2 l/m 0,00 h 0,07 h 0 W/m 5,7 km/h (1 Bft) 95,74 %
22.12.2022 00:00 8,1 C 7,2 C 5,6 C 98 % 1006,0 hPa 0,0 l/m 0,00 h 0,10 h 0 W/m 6,2 km/h (2 Bft) 98,75 %
22.12.2022 01:00 8,1 C 7,2 C 5,6 C 99 % 1005,2 hPa 0,4 l/m 0,00 h 0,20 h 0 W/m 4,6 km/h (1 Bft) 94,52 %
22.12.2022 02:00 8,2 C 7,5 C 5,7 C 99 % 1004,3 hPa 0,8 l/m 0,00 h 0,37 h 0 W/m 4,2 km/h (1 Bft) 97,61 %
22.12.2022 03:00 8,4 C 7,8 C 6,1 C 99 % 1003,3 hPa 0,0 l/m 0,00 h 0,30 h 0 W/m 6,4 km/h (2 Bft) 96,49 %
22.12.2022 04:00 8,5 C 7,8 C 6,1 C 99 % 1002,5 hPa 0,4 l/m 0,00 h 0,27 h 0 W/m 7,1 km/h (2 Bft) 95,30 %
22.12.2022 05:00 8,6 C 7,8 C 6,1 C 99 % 1001,9 hPa 1,6 l/m 0,00 h 1,00 h 0 W/m 1,5 km/h (1 Bft) 96,78 %
22.12.2022 06:00 8,5 C 7,8 C 6,1 C 99 % 1001,7 hPa 2,0 l/m 0,00 h 0,50 h 0 W/m 0,0 km/h (0 Bft) 97,31 %
22.12.2022 07:00 8,4 C 7,8 C 6,1 C 99 % 1001,9 hPa 1,0 l/m 0,00 h 0,83 h 0 W/m 0,0 km/h (0 Bft) 95,54 %
22.12.2022 08:00 8,4 C 7,8 C 6,1 C 100 % 1003,1 hPa 0,2 l/m 0,00 h 0,10 h 0 W/m 0,0 km/h (0 Bft) 98,08 %
22.12.2022 09:00 8,7 C 8,1 C 6,8 C 100 % 1004,3 hPa 0,0 l/m 0,00 h 0,00 h 14 W/m 5,4 km/h (1 Bft) 97,15 %
22.12.2022 10:00 9,1 C 8,7 C 7,2 C 100 % 1005,5 hPa 0,0 l/m 0,00 h 0,00 h 39 W/m 8,8 km/h (2 Bft) 96,87 %
22.12.2022 11:00 9,1 C 9,1 C 7,2 C 100 % 1006,4 hPa 0,0 l/m 0,07 h 0,00 h 75 W/m 9,8 km/h (2 Bft) 97,54 %
22.12.2022 12:00 9,5 C 10,2 C 7,1 C 99 % 1007,0 hPa 0,0 l/m 0,30 h 0,00 h 132 W/m 10,2 km/h (2 Bft) 98,09 %
22.12.2022 13:00 10,1 C 10,7 C 6,8 C 92 % 1007,4 hPa 0,0 l/m 0,70 h 0,00 h 207 W/m 12,7 km/h (3 Bft) 95,14 %
22.12.2022 14:00 10,1 C 9,7 C 7,1 C 89 % 1007,3 hPa 0,0 l/m 0,33 h 0,00 h 92 W/m 12,2 km/h (2 Bft) 97,86 %
22.12.2022 15:00 9,8 C 9,1 C 6,9 C 90 % 1007,3 hPa 0,0 l/m 0,00 h 0,00 h 21 W/m 10,7 km/h (2 Bft) 94,92 %
22.12.2022 16:00 9,4 C 8,5 C 6,4 C 91 % 1006,7 hPa 0,0 l/m 0,00 h 0,37 h 6 W/m 4,2 km/h (1 Bft) 98,57 %
22.12.2022 17:00 8,9 C 7,8 C 5,6 C 94 % 1006,0 hPa 0,4 l/m 0,00 h 0,27 h 0 W/m 8,9 km/h (2 Bft) 94,75 %
22.12.2022 18:00 8,9 C 8,0 C 6,0 C 96 % 1005,3 hPa 0,2 l/m 0,00 h 0,07 h 0 W/m 8,1 km/h (2 Bft) 97,72 %
22.12.2022 19:00 9,1 C 8,3 C 6,1 C 98 % 1004,5 hPa 0,4 l/m 0,00 h 0,40 h 0 W/m 8,1 km/h (2 Bft) 95,59 %
22.12.2022 20:00 9,4 C 8,8 C 6,8 C 98 % 1004,0 hPa 0,6 l/m 0,00 h 0,43 h 0 W/m 13,4 km/h (3 Bft) 98,43 %
22.12.2022 21:00 10,0 C 9,4 C 7,2 C 99 % 1003,9 hPa 0,2 l/m 0,00 h 0,20 h 0 W/m 16,0 km/h (3 Bft) 92,53 %
22.12.2022 22:00 10,0 C 9,4 C 7,2 C 99 % 1003,9 hPa 0,0 l/m 0,00 h 0,10 h 0 W/m 11,1 km/h (2 Bft) 93,65 %
22.12.2022 23:00 9,9 C 9,4 C 7,2 C 98 % 1003,8 hPa 0,0 l/m 0,00 h 0,00 h 0 W/m 15,1 km/h (3 Bft) 96,66 %
23.12.2022 00:00 9,7 C 8,9 C 6,9 C 98 % 1003,9 hPa 0,0 l/m 0,00 h 0,00 h 0 W/m 8,4 km/h (2 Bft) 91,72 %
23.12.2022 01:00 9,6 C 8,9 C 7,1 C 98 % 1004,0 hPa 0,0 l/m 0,00 h 0,00 h 0 W/m 11,8 km/h (2 Bft) 96,97 %
23.12.2022 02:00 9,8 C 9,1 C 7,2 C 98 % 1004,4 hPa 0,0 l/m 0,00 h 0,00 h 0 W/m 12,8 km/h (3 Bft) 98,36 %
23.12.2022 03:00 9,8 C 9,2 C 7,2 C 98 % 1004,9 hPa 0,0 l/m 0,00 h 0,00 h 0 W/m 12,9 km/h (3 Bft) 93,60 %
23.12.2022 04:00 9,8 C 9,1 C 7,2 C 98 % 1005,5 hPa 0,0 l/m 0,00 h 0,07 h 0 W/m 10,6 km/h (2 Bft) 70,64 %
23.12.2022 05:00 9,7 C 8,9 C 7,2 C 98 % 1005,6 hPa 0,0 l/m 0,00 h 0,10 h 0 W/m 10,8 km/h (2 Bft) 68,12 %
23.12.2022 06:00 9,6 C 8,9 C 7,2 C 98 % 1005,9 hPa 0,0 l/m 0,00 h 0,00 h 0 W/m 11,7 km/h (2 Bft) 95,62 %
23.12.2022 07:00 9,4 C 8,9 C 7,2 C 98 % 1006,2 hPa 0,0 l/m 0,00 h 0,00 h 0 W/m 10,0 km/h (2 Bft) 95,05 %
23.12.2022 08:00 9,4 C 8,9 C 7,1 C 98 % 1006,6 hPa 0,0 l/m 0,00 h 0,00 h 5 W/m 6,2 km/h (2 Bft) 96,73 %
23.12.2022 09:00 9,4 C 8,9 C 7,2 C 98 % 1006,5 hPa 0,0 l/m 0,00 h 0,00 h 14 W/m 8,9 km/h (2 Bft) 97,00 %
23.12.2022 10:00 9,5 C 8,9 C 7,2 C 98 % 1006,3 hPa 0,0 l/m 0,00 h 0,00 h 26 W/m 8,5 km/h (2 Bft) 96,72 %
23.12.2022 11:00 9,6 C 9,1 C 7,2 C 98 % 1005,4 hPa 0,0 l/m 0,00 h 0,00 h 46 W/m 7,9 km/h (2 Bft) 98,58 %
23.12.2022 12:00 9,6 C 9,2 C 7,2 C 98 % 1004,3 hPa 0,0 l/m 0,00 h 0,10 h 44 W/m 8,5 km/h (2 Bft) 96,08 %
23.12.2022 13:00 9,5 C 8,9 C 7,2 C 98 % 1002,9 hPa 2,0 l/m 0,00 h 1,00 h 30 W/m 10,6 km/h (2 Bft) 97,60 %
23.12.2022 14:00 9,2 C 8,3 C 6,7 C 98 % 1001,5 hPa 5,2 l/m 0,00 h 1,00 h 15 W/m 12,1 km/h (2 Bft) 95,83 %
23.12.2022 15:00 9,2 C 8,3 C 7,1 C 98 % 1000,3 hPa 1,4 l/m 0,00 h 0,43 h 12 W/m 13,7 km/h (3 Bft) 96,31 %
23.12.2022 16:00 10,3 C 9,8 C 8,0 C 99 % 999,9 hPa 0,2 l/m 0,00 h 0,43 h 9 W/m 14,9 km/h (3 Bft) 98,01 %
23.12.2022 17:00 12,1 C 11,4 C 9,2 C 99 % 1000,4 hPa 0,0 l/m 0,00 h 0,50 h 0 W/m 22,5 km/h (4 Bft) 98,65 %
23.12.2022 18:00 12,1 C 11,0 C 9,0 C 96 % 1001,4 hPa 0,0 l/m 0,00 h 0,27 h 0 W/m 23,1 km/h (4 Bft) 94,49 %
23.12.2022 19:00 11,7 C 10,8 C 8,3 C 93 % 1002,2 hPa 0,0 l/m 0,00 h 0,10 h 0 W/m 20,2 km/h (4 Bft) 98,80 %
23.12.2022 20:00 11,4 C 10,6 C 8,2 C 92 % 1002,8 hPa 0,0 l/m 0,00 h 0,17 h 0 W/m 20,3 km/h (4 Bft) 96,58 %
23.12.2022 21:00 11,2 C 10,6 C 8,2 C 92 % 1003,8 hPa 0,2 l/m 0,00 h 0,40 h 0 W/m 22,6 km/h (4 Bft) 97,04 %
23.12.2022 22:00 11,1 C 10,4 C 8,3 C 93 % 1004,9 hPa 0,0 l/m 0,00 h 0,20 h 0 W/m 21,6 km/h (4 Bft) 98,23 %
23.12.2022 23:00 10,9 C 10,2 C 8,2 C 92 % 1005,9 hPa 0,0 l/m 0,00 h 0,10 h 0 W/m 20,5 km/h (4 Bft) 97,07 %
24.12.2022 00:00 10,8 C 10,1 C 8,0 C 90 % 1006,6 hPa 0,0 l/m 0,00 h 0,00 h 0 W/m 21,2 km/h (4 Bft) 96,48 %
24.12.2022 01:00 10,4 C 9,5 C 7,2 C 89 % 1007,3 hPa 0,0 l/m 0,00 h 0,00 h 0 W/m 20,0 km/h (4 Bft) 98,57 %
24.12.2022 02:00 10,0 C 9,2 C 7,0 C 92 % 1008,0 hPa 0,0 l/m 0,00 h 0,00 h 0 W/m 17,3 km/h (3 Bft) 95,66 %
24.12.2022 03:00 9,6 C 8,9 C 6,7 C 93 % 1008,6 hPa 0,0 l/m 0,00 h 0,00 h 0 W/m 16,1 km/h (3 Bft) 98,35 %
24.12.2022 04:00 9,8 C 9,1 C 6,7 C 93 % 1009,1 hPa 0,0 l/m 0,00 h 0,00 h 0 W/m 14,6 km/h (3 Bft) 96,36 %
24.12.2022 05:00 9,8 C 9,0 C 6,6 C 94 % 1009,6 hPa 0,0 l/m 0,00 h 0,30 h 0 W/m 16,1 km/h (3 Bft) 97,65 %
24.12.2022 06:00 9,8 C 9,1 C 6,3 C 95 % 1010,1 hPa 0,0 l/m 0,00 h 0,00 h 0 W/m 14,8 km/h (3 Bft) 93,98 %
24.12.2022 07:00 9,8 C 9,1 C 6,7 C 94 % 1010,6 hPa 0,0 l/m 0,00 h 0,00 h 0 W/m 16,7 km/h (3 Bft) 97,78 %
24.12.2022 08:00 9,6 C 8,8 C 6,7 C 94 % 1011,1 hPa 0,0 l/m 0,00 h 0,00 h 7 W/m 14,3 km/h (3 Bft) 97,04 %
24.12.2022 09:00 9,6 C 9,1 C 6,7 C 94 % 1011,9 hPa 0,0 l/m 0,00 h 0,00 h 18 W/m 13,8 km/h (3 Bft) 97,02 %
24.12.2022 10:00 9,9 C 9,5 C 7,0 C 93 % 1012,7 hPa 0,0 l/m 0,00 h 0,00 h 32 W/m 15,7 km/h (3 Bft) 98,36 %
24.12.2022 11:00 10,3 C 10,1 C 7,3 C 93 % 1013,3 hPa 0,0 l/m 0,00 h 0,00 h 53 W/m 14,6 km/h (3 Bft) 97,29 %
24.12.2022 12:00 10,9 C 11,2 C 8,0 C 91 % 1013,2 hPa 0,0 l/m 0,23 h 0,00 h 129 W/m 16,5 km/h (3 Bft) 96,53 %
24.12.2022 13:00 11,7 C 12,1 C 8,3 C 88 % 1013,5 hPa 0,0 l/m 0,77 h 0,00 h 204 W/m 17,0 km/h (3 Bft) 99,36 %
24.12.2022 14:00 11,6 C 11,4 C 8,0 C 85 % 1013,9 hPa 0,0 l/m 0,67 h 0,00 h 119 W/m 14,5 km/h (3 Bft) 96,50 %
24.12.2022 15:00 11,0 C 10,1 C 6,9 C 85 % 1014,3 hPa 0,0 l/m 0,00 h 0,00 h 38 W/m 8,6 km/h (2 Bft) 97,40 %
24.12.2022 16:00 10,0 C 8,5 C 5,2 C 88 % 1015,0 hPa 0,0 l/m 0,00 h 0,00 h 8 W/m 1,4 km/h (1 Bft) 97,24 %
24.12.2022 17:00 9,0 C 7,3 C 4,0 C 91 % 1015,2 hPa 0,0 l/m 0,00 h 0,00 h 0 W/m 1,0 km/h (0 Bft) 95,26 %
24.12.2022 18:00 8,4 C 7,2 C 4,2 C 94 % 1015,5 hPa 0,0 l/m 0,00 h 0,00 h 0 W/m 3,2 km/h (1 Bft) 95,56 %
24.12.2022 19:00 7,9 C 6,8 C 4,0 C 94 % 1015,6 hPa 0,0 l/m 0,00 h 0,00 h 0 W/m 2,0 km/h (1 Bft) 96,58 %
24.12.2022 20:00 7,9 C 7,2 C 4,8 C 96 % 1015,7 hPa 0,0 l/m 0,00 h 0,00 h 0 W/m 2,8 km/h (1 Bft) 97,22 %
24.12.2022 21:00 8,1 C 7,2 C 5,0 C 96 % 1015,9 hPa 0,0 l/m 0,00 h 0,00 h 0 W/m 3,5 km/h (1 Bft) 98,08 %
24.12.2022 22:00 8,1 C 7,2 C 5,0 C 97 % 1016,2 hPa 0,0 l/m 0,00 h 0,00 h 0 W/m 5,4 km/h (1 Bft) 95,20 %
24.12.2022 23:00 7,7 C 7,0 C 4,8 C 96 % 1015,6 hPa 0,0 l/m 0,00 h 0,00 h 0 W/m 7,3 km/h (2 Bft) 97,12 %
25.12.2022 00:00 7,2 C 6,2 C 4,1 C 96 % 1015,5 hPa 0,0 l/m 0,00 h 0,00 h 0 W/m 2,3 km/h (1 Bft) 94,74 %
25.12.2022 01:00 7,0 C 6,4 C 4,3 C 96 % 1015,6 hPa 0,0 l/m 0,00 h 0,00 h 0 W/m 3,3 km/h (1 Bft) 95,30 %
25.12.2022 02:00 7,4 C 6,9 C 4,8 C 97 % 1015,5 hPa 0,0 l/m 0,00 h 0,00 h 0 W/m 6,5 km/h (2 Bft) 94,80 %
25.12.2022 03:00 7,8 C 7,2 C 5,0 C 97 % 1015,7 hPa 0,0 l/m 0,00 h 0,00 h 0 W/m 7,1 km/h (2 Bft) 97,83 %
25.12.2022 04:00 7,8 C 7,2 C 5,0 C 97 % 1015,3 hPa 0,0 l/m 0,00 h 0,00 h 0 W/m 6,4 km/h (2 Bft) 95,60 %
25.12.2022 05:00 8,0 C 7,3 C 5,4 C 97 % 1014,9 hPa 0,0 l/m 0,00 h 0,00 h 0 W/m 9,9 km/h (2 Bft) 96,02 %
25.12.2022 06:00 8,2 C 7,6 C 5,5 C 97 % 1014,6 hPa 0,0 l/m 0,00 h 0,00 h 0 W/m 5,4 km/h (1 Bft) 97,92 %
25.12.2022 07:00 8,2 C 7,7 C 5,6 C 97 % 1014,1 hPa 0,0 l/m 0,00 h 0,00 h 0 W/m 8,8 km/h (2 Bft) 95,40 %
25.12.2022 08:00 8,7 C 8,1 C 6,0 C 97 % 1013,2 hPa 0,0 l/m 0,00 h 0,00 h 10 W/m 10,9 km/h (2 Bft) 97,65 %
25.12.2022 09:00 8,8 C 8,3 C 6,1 C 96 % 1013,2 hPa 0,0 l/m 0,07 h 0,13 h 16 W/m 8,6 km/h (2 Bft) 98,43 %
25.12.2022 10:00 9,1 C 8,3 C 6,1 C 97 % 1013,4 hPa 2,4 l/m 0,00 h 0,60 h 10 W/m 8,3 km/h (2 Bft) 93,64 %
25.12.2022 11:00 9,3 C 8,3 C 6,1 C 97 % 1012,9 hPa 2,0 l/m 0,00 h 0,97 h 27 W/m 8,7 km/h (2 Bft) 97,77 %
25.12.2022 12:00 9,4 C 8,7 C 6,7 C 98 % 1011,7 hPa 0,8 l/m 0,00 h 0,50 h 26 W/m 5,8 km/h (1 Bft) 98,53 %
25.12.2022 13:00 9,4 C 8,8 C 6,7 C 99 % 1010,9 hPa 2,8 l/m 0,00 h 0,93 h 12 W/m 2,6 km/h (1 Bft) 95,59 %
25.12.2022 14:00 9,6 C 8,9 C 6,8 C 99 % 1010,2 hPa 0,8 l/m 0,00 h 0,47 h 14 W/m 1,8 km/h (1 Bft) 99,00 %
25.12.2022 15:00 9,6 C 8,9 C 7,2 C 99 % 1009,9 hPa 0,4 l/m 0,00 h 0,63 h 13 W/m 6,7 km/h (2 Bft) 97,07 %
25.12.2022 16:00 9,7 C 9,0 C 7,2 C 99 % 1009,3 hPa 0,0 l/m 0,00 h 0,23 h 6 W/m 5,1 km/h (1 Bft) 96,58 %
25.12.2022 17:00 9,8 C 9,4 C 7,2 C 99 % 1009,2 hPa 0,0 l/m 0,00 h 0,03 h 0 W/m 2,3 km/h (1 Bft) 97,72 %
25.12.2022 18:00 9,9 C 9,4 C 7,7 C 99 % 1009,2 hPa 0,0 l/m 0,00 h 0,07 h 0 W/m 4,6 km/h (1 Bft) 97,57 %
25.12.2022 19:00 10,5 C 10,3 C 7,8 C 99 % 1009,2 hPa 0,2 l/m 0,00 h 0,53 h 0 W/m 12,6 km/h (3 Bft) 96,22 %
25.12.2022 20:00 11,0 C 10,3 C 8,2 C 98 % 1009,5 hPa 0,2 l/m 0,00 h 0,40 h 0 W/m 12,7 km/h (3 Bft) 98,10 %
25.12.2022 21:00 11,0 C 10,2 C 8,3 C 98 % 1009,5 hPa 0,0 l/m 0,00 h 0,00 h 0 W/m 7,7 km/h (2 Bft) 97,49 %
25.12.2022 22:00 10,9 C 10,0 C 8,1 C 98 % 1009,8 hPa 7,0 l/m 0,00 h 0,83 h 0 W/m 11,7 km/h (2 Bft) 97,14 %
25.12.2022 23:00 10,9 C 9,9 C 8,3 C 99 % 1010,3 hPa 1,0 l/m 0,00 h 0,40 h 0 W/m 8,1 km/h (2 Bft) 95,51 %
Min-Datum _ 19.12.22 19.12.22 19.12.22 24.12.22 23.12.22 - - - - 20.12.22 23.12.22
_ Min-Zeit 00:00 00:00 00:00 14:42 16:06 - - - - 15:52 04:32
Minimum _ -0,8 C -1,7 C -4,4 C 83 % 999,8 hPa - - - - 0,0 km/h (0 Bft) 10,64 %
Max-Datum _ 23.12.22 24.12.22 23.12.22 21.12.22 19.12.22 25.12.22 19.12.22 22.12.22 24.12.22 20.12.22 19.12.22
_ Max-Zeit 17:46 13:14 17:24 04:18 00:00 22:26 13:20 02:17 13:08 13:28 00:00
Maximum _ 12,3 C 13,3 C 9,4 C 100 % 1022,1 hPa 7,0 l/m 0,03 h 0,08 h 353 W/m 57,9 km/h
S-SO (7 Bft)
100,00 %
Durchschnitt _ 8,6 C 8,0 C 5,5 C 96 % 1010,6 hPa #50,6 l/m #3:24 h #36:02 h 43 W/m 10,7 km/h (2 Bft) 96,50 %
© 2022 W. Hausmann